Time,TemperatureF,DewpointF,PressureIn,WindDirection,WindDirectionDegrees,WindSpeedMPH,WindSpeedGustMPH,Humidity,HourlyPrecipIn,Conditions,Clouds,dailyrainin,SoftwareType,DateUTC
2013-01-06 15:03:00,48.0,39.0,30.24,WNW,301,3.0,-999.0,72,-99.99,,,0.07,,2013-01-06 21:03:00,
2013-01-06 15:12:00,48.0,39.0,30.24,WNW,301,3.0,-999.0,72,-99.99,,,0.07,,2013-01-06 21:12:00,
2013-01-06 15:33:00,49.0,39.0,30.24,NW,320,2.0,-999.0,69,-99.99,,,0.07,,2013-01-06 21:33:00,
2013-01-06 15:42:00,49.0,39.0,30.24,NW,320,2.0,-999.0,69,-99.99,,,0.07,,2013-01-06 21:42:00,
2013-01-06 15:53:00,48.0,39.0,30.24,West,276,4.0,-999.0,70,-99.99,,,0.07,,2013-01-06 21:53:00,
2013-01-06 16:02:00,48.0,39.0,30.24,NW,325,3.0,-999.0,70,-99.99,,,0.07,,2013-01-06 22:02:00,
2013-01-06 16:12:00,48.0,39.0,30.24,NW,325,3.0,-999.0,70,-99.99,,,0.07,,2013-01-06 22:12:00,
2013-01-06 16:22:00,48.0,39.0,30.24,West,273,4.0,-999.0,72,-99.99,,,0.07,,2013-01-06 22:22:00,
2013-01-06 16:33:00,47.0,38.0,30.26,NW,310,2.0,-999.0,71,-99.99,,,0.07,,2013-01-06 22:33:00,
2013-01-06 16:43:00,47.0,38.0,30.26,NW,310,2.0,-999.0,71,-99.99,,,0.07,,2013-01-06 22:43:00,
2013-01-06 16:52:00,47.0,39.0,30.26,NW,318,0.0,-999.0,73,-99.99,,,0.07,,2013-01-06 22:52:00,
2013-01-06 17:02:00,46.0,38.0,30.27,NW,312,1.0,-999.0,74,-99.99,,,0.07,,2013-01-06 23:02:00,
2013-01-06 17:12:00,46.0,38.0,30.27,NW,312,1.0,-999.0,74,-99.99,,,0.07,,2013-01-06 23:12:00,
2013-01-06 17:22:00,45.0,38.0,30.26,NW,326,1.0,-999.0,76,-99.99,,,0.07,,2013-01-06 23:22:00,
2013-01-06 17:33:00,45.0,39.0,30.26,NW,326,2.0,-999.0,78,-99.99,,,0.07,,2013-01-06 23:33:00,
2013-01-06 17:42:00,45.0,39.0,30.26,NW,326,2.0,-999.0,78,-99.99,,,0.07,,2013-01-06 23:42:00,
2013-01-06 17:53:00,45.0,39.0,30.26,NW,326,2.0,-999.0,78,-99.99,,,0.07,,2013-01-06 23:53:00,
2013-01-06 18:02:00,41.0,37.0,30.27,NW,326,0.0,-999.0,85,-99.99,,,0.07,,2013-01-07 00:02:00,
2013-01-06 18:12:00,41.0,37.0,30.27,NW,326,0.0,-999.0,85,-99.99,,,0.07,,2013-01-07 00:12:00,
2013-01-06 18:23:00,40.0,36.0,30.29,NW,326,0.0,-999.0,87,-99.99,,,0.00,,2013-01-07 00:23:00,
2013-01-06 18:33:00,39.0,36.0,30.30,NW,326,0.0,-999.0,89,-99.99,,,0.00,,2013-01-07 00:33:00,
2013-01-06 18:42:00,39.0,36.0,30.30,NW,326,0.0,-999.0,89,-99.99,,,0.00,,2013-01-07 00:42:00,
2013-01-06 18:53:00,40.0,37.0,30.30,NW,315,1.0,-999.0,89,-99.99,,,0.00,,2013-01-07 00:53:00,
2013-01-06 19:02:00,39.0,36.0,30.31,NW,315,0.0,-999.0,90,-99.99,,,0.00,,2013-01-07 01:02:00,
2013-01-06 19:12:00,39.0,36.0,30.31,NW,315,0.0,-999.0,90,-99.99,,,0.00,,2013-01-07 01:12:00,
2013-01-06 19:22:00,40.0,37.0,30.32,NW,315,0.0,-999.0,88,-99.99,,,0.00,,2013-01-07 01:22:00,
2013-01-06 19:32:00,41.0,37.0,30.32,NW,315,0.0,-999.0,87,-99.99,,,0.00,,2013-01-07 01:32:00,
2013-01-06 19:42:00,41.0,37.0,30.32,NW,315,0.0,-999.0,87,-99.99,,,0.00,,2013-01-07 01:42:00,
2013-01-06 19:53:00,40.0,36.0,30.32,NW,315,0.0,-999.0,86,-99.99,,,0.00,,2013-01-07 01:53:00,
2013-01-06 20:02:00,40.0,36.0,30.33,NNW,332,0.0,-999.0,85,-99.99,,,0.00,,2013-01-07 02:02:00,
2013-01-06 20:12:00,40.0,36.0,30.33,NNW,332,0.0,-999.0,85,-99.99,,,0.00,,2013-01-07 02:12:00,
2013-01-06 20:22:00,38.0,34.0,30.32,NNW,332,0.0,-999.0,87,-99.99,,,0.00,,2013-01-07 02:22:00,
2013-01-06 20:32:00,37.0,34.0,30.35,NNW,332,0.0,-999.0,89,-99.99,,,0.00,,2013-01-07 02:32:00,
2013-01-06 20:42:00,37.0,34.0,30.35,NNW,332,0.0,-999.0,89,-99.99,,,0.00,,2013-01-07 02:42:00,
2013-01-06 20:52:00,36.0,33.0,30.34,NNW,332,0.0,-999.0,90,-99.99,,,0.00,,2013-01-07 02:52:00,
2013-01-06 21:02:00,35.0,33.0,30.35,NNW,332,0.0,-999.0,93,-99.99,,,0.00,,2013-01-07 03:02:00,
2013-01-06 21:12:00,35.0,33.0,30.35,NNW,332,0.0,-999.0,93,-99.99,,,0.00,,2013-01-07 03:12:00,
2013-01-06 21:22:00,35.0,33.0,30.35,NNW,332,0.0,-999.0,92,-99.99,,,0.00,,2013-01-07 03:22:00,
2013-01-06 21:32:00,35.0,33.0,30.36,NNW,332,0.0,-999.0,94,-99.99,,,0.00,,2013-01-07 03:32:00,
2013-01-06 21:42:00,35.0,33.0,30.36,NNW,332,0.0,-999.0,94,-99.99,,,0.00,,2013-01-07 03:42:00,
2013-01-06 21:53:00,35.0,33.0,30.37,NNW,332,0.0,-999.0,94,-99.99,,,0.00,,2013-01-07 03:53:00,
2013-01-06 22:02:00,39.0,35.0,30.37,North,359,3.0,-999.0,86,-99.99,,,0.00,,2013-01-07 04:02:00,
2013-01-06 22:12:00,39.0,35.0,30.37,North,359,3.0,-999.0,86,-99.99,,,0.00,,2013-01-07 04:12:00,
2013-01-06 22:22:00,39.0,35.0,30.37,North,359,3.0,-999.0,84,-99.99,,,0.00,,2013-01-07 04:22:00,
2013-01-06 22:32:00,40.0,34.0,30.37,North,4,7.0,-999.0,80,-99.99,,,0.00,,2013-01-07 04:32:00,
2013-01-06 22:42:00,40.0,34.0,30.37,North,4,7.0,-999.0,80,-99.99,,,0.00,,2013-01-07 04:42:00,
2013-01-06 22:52:00,40.0,34.0,30.38,NNE,18,5.0,-999.0,80,-99.99,,,0.00,,2013-01-07 04:52:00,
2013-01-06 23:03:00,39.0,34.0,30.38,NNE,25,5.0,-999.0,81,-99.99,,,0.00,,2013-01-07 05:03:00,
2013-01-06 23:12:00,39.0,34.0,30.38,NNE,25,5.0,-999.0,81,-99.99,,,0.00,,2013-01-07 05:12:00,
2013-01-06 23:22:00,39.0,34.0,30.37,North,4,5.0,-999.0,81,-99.99,,,0.00,,2013-01-07 05:22:00,
2013-01-06 23:33:00,39.0,34.0,30.37,NNE,14,6.0,-999.0,81,-99.99,,,0.00,,2013-01-07 05:33:00,
2013-01-06 23:42:00,39.0,34.0,30.37,NNE,14,6.0,-999.0,81,-99.99,,,0.00,,2013-01-07 05:42:00,
2013-01-06 23:52:00,38.0,33.0,30.37,North,350,5.0,-999.0,82,-99.99,,,0.00,,2013-01-07 05:52:00,